Showing default

MKA-FKI 1, 38711

Orbit data source: Space-Track

MKA-FKI 1, 38711 is a Commonwealth of Independent States-origin payload satellite in SSO that was launched on Sun, 22 Jul 2012 UTC via a SOYUZ-FG launch vehicle from the Tyuratam Missile And Space Complex (TTMTR). Payload-class satellites include a variety of spacecraft equipped with specific instruments for various scientific and technological missions. These include communications satellites like Starlink; space stations such as the ISS; scientific satellites like the Hubble; Earth observation satellites from companies like Planet Labs, Umbra, and HawkEye 360; GPS; miniature CubeSats for education and research; and military/defense satellites.

Loading next visibility...
Identifier
38711, 2012-039E
Orbit
SSO
Country
Flag of CISCIS
Related business
Manufacturer
Lavochkin
Mission
Operational Civil Science
Bus & Motor
KARAT, Unknown motor
Mass
110 kg wet, 110 kg dry
Launch date (UTC)
2012-07-22 (13 years ago)
Launch vehicle
SOYUZ-FG
Launch site
Tyuratam Missile And Space Complex (TTMTR)
Object type
Payload
Rocket body
Debris
Shape & HBR
Box + 3 Pan, 0.5 m
Radar Cross Section
1.500 m², Large (>1 m²)

Expand to show TLE details & history
Last TLE update: 9 hours ago

TLE from 9 hours ago
0 MKA-FKI 1
1 38711U 12039E   25260.89332466  .00000146  00000-0  81734-4 0  9999
2 38711  98.9533   7.1318 0010732 230.3943 129.6289 14.25272359684056
Epoch: 2025-09-17T21:26Z
TLE epoch observation values (Epoch: 2025-09-17T21:26:23.25Z)
Latitude
-0.00001°
Longitude
48.47219°
Altitude
815.415 km
Speed
7.443 km/s
True Right ascension
00h 28m 31s
True Declination
0° 00' 00"
Sunlit
Object was in full shadow at epoch
Visualization orbit readout
Latitude
Unknown
Longitude
Unknown
Altitude
Unknown
Speed
Unknown
Apparent Right ascension
Unknown
Apparent Declination
Unknown
Sunlit
N/A
Visualization observer readout
Local Sidereal Time
23:32:36
Azimuth
Unknown
Elevation
Unknown
Doppler factor
Unknown
Orbital elements
Apogee altitude
812.449 km
Perigee altitude
797.032 km
Semi-major axis
7,182.877 km
Eccentricity
0.00107
Inclination
98.9533°
RAAN
7.1318°
Arg. of periapsis
230.3943°
True anomaly
129.72354°
Mean anomaly
129.6289°
Eccentric anomaly
129.67623°
Mean motion
3.5653 °/min
Orbital period
100.97 mins
BSTAR
0.000081734
Loading maneuver chart data...
Computing Atmospheric mass density...
Loading historical data...
Loading historical data...
Loading historical data...
Loading historical data...
Loading historical data...
Loading historical data...
Loading historical data...

Documentation

Showing up to 5 results
|